Weather History for PATC - January, 2013

Change the Weather History Date:

Wednesday, January 9, 2013

  Actual Average Record
Temperature  
Mean Temperature 2 °F -  
Max Temperature 7 °F 7 °F 30 °F (2011)
Min Temperature -2 °F -1 °F -18 °F (2002)
Degree Days  
Heating Degree Days 64    
Moisture  
Dew Point 0 °F    
Average Humidity 90    
Maximum Humidity 92    
Minimum Humidity 85    
Precipitation  
Precipitation 0.00 in - - ()
Sea Level Pressure  
Sea Level Pressure 29.82 in    
Wind  
Wind Speed 14 mph (NNE)    
Max Wind Speed 28 mph    
Max Gust Speed 41 mph    
Visibility 5 miles    
Events Fog , Snow    
Averages and records for this station are not official NWS values.
T = Trace of Precipitation, MM = Missing Value Source: NWS Daily Summary

Daily Weather History Graph

Daily Weather History Graph

Search for Another Location

Airport or City:

Trip Planner

Search our weather history database for the weather conditions in past years. The results will help you decide how hot, cold, wet, or windy it might be!

Date:

Astronomy

Jan. 09, 2013 Rise Set
Actual Time 12:12 PM AKST 4:26 PM AKST
Civil Twilight 10:51 AM AKST 5:47 PM AKST
Nautical Twilight 9:40 AM AKST 6:58 PM AKST
Astronomical Twilight 8:38 AM AKST 8:00 PM AKST
Moon 10:07 AM AKST (1/9) 2:39 PM AKST (1/9)
Length of Visible Light 6h 56m
Length of Day
4h 14m
Waning Crescent, 5% of the Moon is Illuminated
Jan 9
Waning Crescent
Jan 11
New
Jan 18
First Quarter
Jan 26
Full
Feb 3
Last Quarter

Hourly Weather History & Observations

Time (AKST) Temp. Windchill Dew Point Humidity Pressure Visibility Wind Dir Wind Speed Gust Speed Precip Events Conditions
12:55 AM -2.4 °F -22.4 °F -4.7 °F 90% 30.03 in 10.0 mi NE 15.0 mph - N/A   Partly Cloudy
1:55 AM -1.8 °F -20.2 °F -3.8 °F 91% 30.03 in 10.0 mi NE 12.7 mph - N/A   Mostly Cloudy
3:55 AM 1.4 °F -16.9 °F -0.8 °F 91% 30.03 in 10.0 mi NE 13.8 mph - N/A Snow Light Snow Showers
4:55 AM 2.1 °F -17.3 °F -0.2 °F 90% 30.01 in 10.0 mi NE 16.1 mph - N/A Snow Light Snow
5:55 AM 2.1 °F -17.3 °F -0.0 °F 91% 30.00 in 10.0 mi NE 16.1 mph - N/A Snow Light Snow
6:50 AM -2.2 °F -24.1 °F -4.0 °F 92% 29.99 in 2.5 mi NNE 18.4 mph - N/A Snow Light Snow Showers
6:55 AM -2.4 °F -24.3 °F -5.3 °F 88% 29.99 in 2.0 mi NNE 18.4 mph - N/A Snow Light Snow Showers
7:15 AM -2.2 °F -25.2 °F -5.8 °F 85% 29.98 in 0.5 mi NE 20.7 mph - N/A Fog , Snow Light Snow Showers
7:35 AM -2.2 °F -24.7 °F -4.0 °F 92% 29.97 in 1.5 mi NNE 19.6 mph - N/A Snow Light Snow Showers
7:55 AM 0.3 °F -19.6 °F -1.8 °F 91% 29.96 in 10.0 mi NE 16.1 mph - N/A Snow Light Snow
8:25 AM -0.4 °F -19.9 °F -4.0 °F 85% 29.95 in 1.2 mi NNE 15.0 mph - N/A Snow Light Snow
9:45 AM 1.4 °F -12.5 °F -2.2 °F 85% 29.94 in 10.0 mi NNE 8.1 mph - N/A Snow Light Snow
9:55 AM 1.8 °F -10.8 °F -0.6 °F 90% 29.94 in 10.0 mi NNE 6.9 mph - N/A Snow Light Snow
10:55 AM 1.8 °F -9.5 °F -0.8 °F 89% 29.93 in 10.0 mi NNE 5.8 mph - N/A Snow Light Snow
11:55 AM -0.6 °F -14.9 °F -2.6 °F 91% 29.89 in 7.0 mi NNE 8.1 mph - N/A Snow Light Snow
12:50 PM 3.2 °F -10.3 °F -0.4 °F 85% 29.86 in 1.8 mi NNE 8.1 mph - N/A Snow Light Snow
12:55 PM 2.3 °F -11.4 °F 0.3 °F 91% 29.86 in 1.2 mi NNE 8.1 mph - N/A Snow Light Snow
1:15 PM 1.4 °F -11.3 °F -0.4 °F 92% 29.86 in 4.0 mi NNE 6.9 mph - N/A Snow Light Snow
1:55 PM -0.2 °F -10.1 °F -3.8 °F 85% 29.85 in 6.0 mi NNE 4.6 mph - N/A Snow Light Snow
2:55 PM 2.1 °F -5.4 °F 0.3 °F 92% 29.81 in 10.0 mi NNE 3.5 mph - N/A Snow Light Snow
3:35 PM 1.4 °F -11.3 °F -0.4 °F 92% 29.78 in 2.5 mi NNE 6.9 mph - N/A Snow Light Snow Showers
3:55 PM 3.6 °F -9.8 °F 1.6 °F 91% 29.77 in 2.5 mi NNE 8.1 mph - N/A Snow Light Snow Showers
4:10 PM 3.2 °F -9.1 °F 1.4 °F 92% 29.76 in 3.0 mi NNE 6.9 mph - N/A Snow Light Snow Showers
4:30 PM 3.2 °F -7.8 °F 1.4 °F 92% 29.75 in 2.0 mi NNE 5.8 mph - N/A Snow Light Snow
4:50 PM 3.2 °F -10.3 °F -0.4 °F 85% 29.74 in 1.2 mi NNE 8.1 mph - N/A Snow Light Snow Showers
4:55 PM 2.3 °F -12.4 °F 0.1 °F 91% 29.74 in 1.2 mi NNE 9.2 mph - N/A Snow Light Snow Showers
5:15 PM 3.2 °F -10.3 °F 1.4 °F 92% 29.72 in 5.0 mi NNE 8.1 mph - N/A Snow Light Snow Showers
5:55 PM 5.0 °F -8.1 °F 3.2 °F 92% 29.70 in 10.0 mi NNE 8.1 mph - N/A Snow Light Snow Showers
6:55 PM 4.8 °F -11.1 °F 3.0 °F 92% 29.68 in 10.0 mi NNE 11.5 mph - N/A Snow Light Snow Showers
7:05 PM 5.0 °F -10.0 °F 3.2 °F 92% 29.66 in 2.5 mi NNE 10.4 mph - N/A Snow Light Snow Showers
7:25 PM 5.0 °F -15.7 °F 3.2 °F 92% 29.65 in 1.8 mi NNE 20.7 mph 32.2 mph N/A Snow Light Snow Showers
7:55 PM 4.8 °F -18.5 °F 2.7 °F 91% 29.64 in 1.5 mi NNE 27.6 mph 41.4 mph N/A Snow Light Snow
8:45 PM 5.0 °F -17.9 °F 1.4 °F 85% 29.64 in 2.0 mi NNE 26.5 mph 39.1 mph N/A Snow Light Snow
8:55 PM 4.1 °F -18.7 °F 2.1 °F 91% 29.63 in 2.5 mi NNE 25.3 mph 33.4 mph N/A Snow Light Snow
9:20 PM 5.0 °F -17.1 °F 3.2 °F 92% 29.63 in 3.0 mi NNE 24.2 mph 35.7 mph N/A Snow Light Snow
9:55 PM 4.6 °F -18.4 °F 2.8 °F 92% 29.61 in 4.0 mi NNE 26.5 mph 33.4 mph N/A Snow Light Snow
10:55 PM 5.4 °F -16.2 °F 3.6 °F 92% 29.61 in 7.0 mi NNE 23.0 mph 29.9 mph N/A Snow Light Snow
11:55 PM 6.3 °F -13.6 °F 4.3 °F 92% 29.60 in 10.0 mi NNE 19.6 mph - N/A Snow Light Snow Showers